Theta_e
303 303 302 302 302 302 301 301 301 301 301 300 300 299 299 299 298 298 298 297 297 297 296 296 296 296 296 296 296 296 295 295 296 296 296 296 296 296 296 295 295 295 294 294 293 293 292 292 291 291 290 290 290 290 289 289 289 289 289 289 289 289 289 289 289 289 289 290 290 290 291 291 291 291 291 291 292 292 292 292 292 292 292 292 291 292
303 302 302 301 301 301 301 301 300 300 300 300 299 299 298 298 298 298 297 297 296 296 295 295 295 295 295 295 295 295 295 295 295 296 296 296 296 296 295 295 294 294 293 292 292 292 292 291 291 290 290 289 289 289 289 289 289 289 289 289 289 289 289 289 289 289 289 289 289 289 289 289 290 290 290 290 290 290 290 290 290 290 290 291 291 291
303 302 302 301 301 301 301 300 300 299 299 299 299 298 298 298 298 297 297 296 296 295 295 294 294 294 294 295 295 295 295 295 295 295 296 296 295 295 295 294 293 292 292 292 292 291 291 290 289 289 289 289 289 289 289 289 289 289 289 289 289 289 289 289 289 289 289 289 289 289 289 289 289 289 289 289 289 289 289 289 289 290 290 291 291 291
302 302 301 301 301 300 300 300 299 299 299 299 299 298 298 298 298 297 297 296 295 295 294 294 294 294 295 295 295 295 295 295 295 295 295 295 295 294 293 292 292 291 291 291 291 290 289 288 288 288 288 288 288 289 289 289 289 289 289 289 289 289 289 289 289 289 289 289 289 289 289 289 289 289 289 289 289 289 289 289 290 290 290 290 290 291
301 301 301 300 300 300 299 299 299 299 299 299 299 299 298 298 298 297 297 296 295 295 295 295 295 295 295 295 295 295 295 295 295 295 295 294 294 293 292 291 290 290 290 289 288 288 287 287 287 287 287 288 288 289 289 289 289 289 289 289 289 289 289 289 289 289 289 289 289 289 289 289 289 289 289 289 289 289 289 289 289 289 289 290 290 290
301 301 300 300 300 299 299 299 299 299 299 299 298 298 298 298 297 297 296 296 295 295 295 295 295 295 295 295 295 295 295 294 294 294 293 293 292 291 290 289 289 288 287 287 287 286 286 286 286 286 287 288 288 289 289 289 289 289 289 289 289 289 289 289 289 289 289 289 289 289 289 289 289 289 288 289 289 289 289 289 289 289 289 289 289 289
300 300 300 300 299 299 299 299 299 298 298 298 298 298 298 297 297 296 296 295 295 295 295 295 295 295 295 294 294 294 294 294 293 292 291 291 290 289 288 287 287 286 286 286 286 286 285 286 286 287 287 288 288 289 289 289 289 289 289 289 289 289 289 289 288 288 288 288 288 288 288 288 288 288 288 288 288 288 289 289 289 289 289 289 289 289
300 300 299 299 299 298 298 298 298 298 298 298 297 297 297 296 296 296 295 295 295 295 295 295 294 294 294 294 293 293 292 292 291 290 289 288 288 287 287 286 286 286 286 286 286 285 285 286 286 287 288 288 288 288 289 289 289 289 289 288 288 288 288 288 288 288 288 288 288 288 288 288 288 288 288 288 289 289 289 289 289 289 289 289 289 289
300 299 299 298 298 297 297 297 297 297 297 297 297 296 296 296 295 295 295 295 294 294 294 294 293 293 292 292 291 291 290 289 289 288 288 287 287 287 286 286 286 286 286 286 285 285 285 285 286 286 287 287 288 288 288 288 288 288 288 288 288 288 288 288 287 287 287 288 288 288 288 288 288 288 289 289 289 289 289 289 289 289 289 289 289 289
299 299 298 298 297 297 297 297 297 297 296 296 296 296 295 295 295 294 294 293 293 292 292 291 291 290 290 289 289 289 288 288 288 287 287 287 287 286 286 286 286 286 286 285 285 285 285 285 285 286 286 286 287 287 287 287 287 287 287 287 287 287 287 287 287 287 288 288 288 288 288 288 289 289 289 289 289 289 289 289 289 289 289 289 289 289
298 298 298 297 297 296 296 296 296 296 296 295 295 295 294 293 293 292 292 291 290 290 290 289 289 289 288 288 288 288 288 288 287 287 287 287 286 286 286 286 285 285 285 285 285 285 285 285 285 285 286 286 286 286 287 287 287 287 287 287 287 287 287 287 287 288 288 288 288 288 289 289 289 289 289 289 289 289 289 289 289 289 289 289 289 289
298 298 297 297 296 296 296 296 295 295 295 294 293 292 292 291 291 290 290 289 289 289 288 288 288 288 288 288 288 288 287 287 287 287 287 286 286 286 285 285 285 285 285 285 284 284 284 285 285 285 286 286 286 286 286 286 287 287 287 287 287 287 287 287 288 288 288 288 288 289 289 289 289 289 289 289 289 289 289 289 289 289 289 289 289 289
297 297 296 296 296 295 295 294 294 293 292 292 291 290 289 289 289 289 289 289 288 288 288 288 288 288 288 287 287 287 287 287 287 287 286 286 286 285 285 284 284 284 284 284 284 284 285 285 285 286 286 286 286 286 286 286 287 287 287 287 287 287 287 288 288 288 288 289 289 289 289 289 289 289 289 289 289 289 289 289 289 289 289 289 289 289
295 295 295 294 294 293 293 292 292 291 290 290 289 289 289 289 289 288 288 288 288 288 288 288 288 287 287 287 287 287 287 287 286 286 286 285 285 285 284 284 284 284 284 284 285 285 285 285 286 286 286 286 286 286 286 287 287 287 287 287 287 287 288 288 288 288 288 289 289 289 289 289 289 289 289 289 289 289 289 289 289 289 289 289 289 289
292 292 292 291 291 291 290 290 290 289 289 289 289 289 288 288 288 288 288 288 288 288 288 287 287 287 287 287 287 287 287 286 286 286 285 285 285 284 284 284 284 284 284 285 285 285 285 285 286 286 286 286 286 286 287 287 287 287 287 287 287 288 288 288 288 288 288 289 289 289 289 289 289 289 289 289 289 289 289 289 289 289 289 289 289 289
290 290 290 290 289 289 289 289 289 289 289 288 288 288 288 288 288 288 288 288 288 287 287 287 287 287 287 287 286 286 286 286 285 285 285 285 284 284 284 284 284 284 285 285 285 285 286 286 286 286 286 286 286 286 287 287 287 287 287 287 288 288 288 288 288 288 288 288 289 289 289 289 289 289 289 289 289 289 289 289 289 289 289 289 289 289
289 289 289 289 289 289 289 289 289 288 288 288 288 288 288 288 288 288 288 288 287 287 287 287 287 287 287 286 286 286 285 285 285 285 284 284 284 284 284 284 284 284 285 285 285 286 286 286 286 286 286 286 286 287 287 287 287 287 287 288 288 288 288 288 288 288 288 288 289 289 289 289 289 289 289 289 289 289 289 289 289 290 290 290 290 290
289 289 289 289 289 289 288 288 288 288 288 288 288 288 288 288 288 288 287 287 287 287 287 287 287 286 286 286 285 285 285 285 285 284 284 284 284 284 283 284 284 285 285 286 286 286 286 286 286 286 286 287 287 287 287 287 287 287 287 288 288 288 288 288 288 288 288 288 289 289 289 289 289 289 289 290 290 290 290 290 290 290 290 290 290 290
288 288 289 288 288 288 288 288 288 288 288 288 287 287 288 288 288 287 287 287 287 287 286 286 286 286 286 285 285 285 285 285 284 284 284 284 284 284 283 284 284 285 285 286 286 286 286 286 286 286 287 287 287 287 287 287 287 287 288 288 288 288 288 288 288 288 288 289 289 289 289 289 289 289 290 290 290 290 290 290 290 290 290 290 290 290
287 287 287 287 287 287 287 287 286 286 287 287 287 287 287 287 287 287 287 287 287 286 286 286 286 286 285 285 285 285 285 284 284 284 284 284 284 283 283 284 285 285 286 286 286 286 286 286 286 286 287 287 287 287 287 287 287 287 287 288 288 288 288 288 288 288 289 289 289 289 289 289 289 289 290 290 290 290 290 290 290 290 290 290 290 290
286 286 286 286 286 286 286 286 286 286 286 286 286 286 286 286 286 286 286 286 286 286 286 285 285 285 285 285 285 284 284 284 283 283 283 283 283 283 284 285 285 286 286 286 286 286 286 286 286 286 286 287 287 287 287 287 287 287 287 288 288 288 288 288 288 289 289 289 289 289 289 289 289 289 289 290 290 290 290 290 290 290 290 290 290 290
286 286 286 286 286 286 285 285 285 286 285 285 285 285 285 285 285 285 285 285 285 285 285 285 284 284 284 283 283 283 283 283 282 282 282 283 283 284 284 285 286 286 286 286 286 286 286 286 286 286 286 287 287 287 287 287 287 287 288 288 288 288 288 288 288 289 289 289 289 289 289 289 289 289 290 290 290 290 290 290 290 290 290 291 291 291
286 285 285 285 285 285 285 285 285 285 285 285 285 285 285 285 284 284 284 284 284 284 283 283 283 283 283 283 283 282 282 282 282 282 283 283 284 285 285 285 286 286 286 287 287 287 287 287 287 287 287 287 287 287 287 287 287 288 288 288 288 288 288 288 289 289 289 289 289 289 289 289 289 289 290 290 290 290 290 290 290 290 291 291 291 291
285 285 285 285 285 285 285 285 284 284 284 284 284 284 284 284 284 284 284 284 283 283 283 283 283 283 283 283 283 283 283 283 283 283 283 284 284 285 285 286 286 286 287 287 287 287 287 287 287 287 287 287 287 287 287 287 288 288 288 288 288 288 288 288 288 289 289 289 289 289 289 289 289 290 290 290 290 290 290 290 290 290 290 290 290 291
285 285 284 284 284 284 284 284 284 284 284 284 284 284 284 284 284 284 283 283 283 283 283 283 283 283 283 283 283 283 283 283 283 283 284 284 285 286 286 286 286 286 287 287 287 287 287 287 287 287 287 287 287 287 288 288 288 288 288 288 288 288 288 288 288 289 289 289 289 289 289 289 289 290 290 290 290 290 290 290 290 290 290 290 290 290
285 284 284 284 284 284 284 284 284 284 284 284 284 284 284 283 283 283 282 282 282 282 282 282 282 282 282 282 283 283 283 283 284 284 284 285 285 286 286 286 286 286 287 287 287 287 287 288 288 288 287 287 288 288 288 288 288 288 288 288 288 288 288 288 289 289 289 289 289 289 289 289 289 290 290 290 290 290 290 290 290 290 290 290 290 290
284 284 284 284 284 284 284 284 284 283 283 283 283 283 283 283 283 283 282 282 282 282 282 282 282 282 282 282 283 283 283 284 284 285 285 285 285 286 286 286 286 287 287 287 288 288 288 288 288 288 288 288 288 288 288 288 289 289 289 289 289 289 289 289 289 289 289 289 289 289 289 289 290 290 290 289 290 290 290 290 290 290 290 290 290 290
284 284 284 284 284 284 283 283 283 283 283 283 283 283 283 282 282 282 282 282 282 281 281 281 281 282 282 282 283 283 284 285 285 285 285 285 285 286 286 286 286 287 287 288 288 288 288 288 288 289 289 289 289 289 289 289 289 289 289 289 289 289 289 289 289 289 289 289 289 289 289 289 289 289 289 289 289 289 289 289 290 290 290 290 290 290
284 284 284 283 283 283 283 283 283 283 283 283 282 282 282 282 282 281 281 281 281 281 281 281 281 281 282 283 283 284 285 285 285 285 285 285 285 285 286 286 286 287 287 288 288 289 289 289 289 289 289 289 289 289 289 289 289 289 289 289 289 289 289 289 289 289 289 289 289 289 289 289 289 289 289 289 289 289 289 289 289 289 289 290 290 290
283 283 283 283 283 283 282 282 282 282 282 282 282 282 281 281 281 281 281 281 281 281 281 281 281 282 282 283 284 285 285 285 285 285 285 285 285 285 286 286 286 287 287 287 288 289 289 289 289 289 289 289 289 289 289 289 289 289 289 289 289 289 289 289 289 289 289 289 289 289 289 289 289 289 289 289 289 289 289 289 289 289 289 289 290 290
283 283 282 282 282 282 282 282 282 281 281 281 281 281 281 281 281 281 281 281 281 281 281 281 282 282 283 283 284 284 285 285 285 285 285 285 285 285 286 286 286 287 287 287 287 288 289 290 289 289 289 289 289 289 289 289 289 289 289 289 289 289 289 289 289 289 289 289 289 289 289 289 289 289 289 289 289 289 289 289 289 289 289 289 289 290
282 282 282 282 282 282 281 281 281 281 281 281 281 281 281 281 281 281 281 281 281 281 282 282 282 283 283 284 284 284 285 285 285 285 285 285 285 286 286 286 286 287 287 287 286 286 287 289 290 290 289 289 290 290 289 289 289 289 289 289 289 289 289 289 289 289 289 289 289 289 289 289 289 289 289 289 289 289 289 289 289 288 289 289 289 289
282 282 282 282 282 281 281 281 281 281 281 281 281 281 281 281 281 281 281 281 282 282 282 283 283 283 284 284 284 285 285 285 285 285 285 285 285 286 286 286 286 286 287 287 287 286 286 288 289 290 290 290 290 290 290 289 289 289 289 289 289 290 289 289 289 289 290 290 289 289 289 289 289 288 288 288 288 288 288 288 288 288 288 288 288 288
282 282 282 282 281 281 281 281 281 281 281 281 281 281 281 281 281 281 281 282 282 282 283 283 283 284 284 284 285 285 285 285 285 284 285 285 285 285 286 286 286 286 286 287 287 287 287 288 289 290 290 291 290 290 290 290 290 289 290 290 290 290 290 290 289 289 289 289 289 289 289 289 288 288 288 288 288 288 288 288 288 288 287 287 287 287
282 282 282 282 281 281 281 281 281 281 281 281 281 281 281 281 281 281 281 282 282 283 283 284 284 284 284 284 285 285 285 285 285 284 284 285 285 285 285 286 286 286 286 286 286 287 287 288 289 289 290 290 291 290 290 290 290 290 290 290 290 290 290 290 289 289 289 289 289 289 289 289 288 288 288 288 288 288 288 288 287 287 287 287 287 287
282 282 282 281 281 281 281 281 281 281 281 281 281 281 281 281 281 281 282 282 283 283 283 284 284 284 285 285 285 285 285 285 285 285 285 285 285 285 285 286 286 286 285 286 286 286 287 288 288 288 289 289 290 290 290 289 289 289 290 290 290 290 289 289 289 289 289 289 289 289 289 289 288 288 288 288 288 287 287 287 287 287 287 287 287 286
282 282 282 282 281 281 281 281 281 281 281 280 280 281 281 281 281 281 282 282 283 283 284 284 284 284 285 285 285 285 285 285 285 285 285 285 285 285 285 285 286 285 285 285 285 286 286 286 287 288 288 288 289 290 290 290 290 290 290 290 290 290 290 289 289 289 289 289 289 289 289 288 288 288 288 288 287 287 287 287 287 287 287 287 287 286
282 282 282 282 281 281 281 281 281 281 280 280 280 281 281 281 281 282 282 283 283 284 284 284 285 285 285 285 285 285 285 285 285 285 285 285 285 285 285 285 286 286 285 285 285 285 285 285 286 287 288 288 289 289 289 290 290 290 290 290 290 290 290 290 289 289 289 289 289 289 288 288 288 288 287 287 287 287 287 287 287 287 287 286 286 286
282 282 282 281 281 281 281 281 281 281 280 280 281 281 281 282 282 283 283 284 284 285 285 285 285 285 285 285 285 285 285 285 285 285 285 285 285 285 285 285 285 286 286 285 285 285 285 285 285 285 286 287 288 289 289 289 290 290 290 290 290 290 290 289 289 289 289 288 288 288 288 288 287 287 287 287 287 287 287 287 287 286 286 286 286 286
282 282 281 281 281 281 281 281 281 281 280 281 281 281 282 282 283 284 284 284 285 285 285 285 285 285 285 285 285 285 285 285 285 285 285 285 285 285 285 285 285 285 285 285 285 285 285 284 285 285 286 286 287 288 289 289 290 290 290 290 291 290 290 289 289 289 288 288 288 288 288 287 287 287 286 286 286 286 286 287 287 286 286 286 286 286
281 281 281 281 281 281 281 281 281 281 281 281 281 282 282 283 284 284 285 285 285 285 285 285 285 285 285 285 285 285 285 285 285 285 285 285 284 284 284 285 285 285 285 285 285 285 285 284 284 285 285 286 286 287 288 289 289 289 289 289 290 290 290 289 289 288 288 288 287 287 287 287 286 286 286 286 286 286 286 286 286 286 286 286 286 286
281 281 281 281 281 281 281 281 281 281 281 281 282 283 283 284 284 285 285 285 285 285 285 285 285 285 285 285 285 285 284 284 284 284 284 284 284 284 284 285 285 285 285 284 284 284 284 284 284 284 285 285 285 286 287 288 289 289 289 289 289 289 289 289 288 288 287 287 287 287 286 286 286 286 286 286 286 286 286 286 286 286 286 286 286 286
281 281 281 281 281 281 281 281 281 281 281 282 283 283 284 284 285 285 285 285 285 285 285 285 285 285 285 285 285 285 285 285 285 285 285 285 285 284 284 284 284 284 284 284 284 284 284 284 284 285 285 285 285 285 286 288 288 288 288 288 287 287 288 288 288 287 287 287 287 287 286 286 286 286 286 286 286 286 286 286 286 286 286 286 286 286
281 281 281 281 281 281 281 281 281 281 282 283 283 284 284 285 285 285 285 285 285 285 285 285 285 285 285 285 285 285 285 285 285 285 285 285 285 284 284 284 284 284 284 283 283 284 284 284 284 285 284 284 284 285 286 287 287 288 287 287 286 286 287 287 287 287 287 287 287 287 286 286 286 286 286 286 286 286 286 286 286 286 286 286 286 286
281 281 281 281 281 281 281 281 282 282 283 283 284 284 284 285 285 285 285 285 285 285 285 285 285 285 285 285 285 285 285 285 285 285 285 284 284 284 284 284 284 283 283 283 283 283 283 284 284 284 284 284 284 284 285 286 286 287 287 286 286 286 286 286 286 287 287 287 287 286 286 286 286 286 286 286 286 287 287 287 287 287 287 286 286 286
281 281 281 281 281 281 281 282 282 282 283 284 284 284 285 285 285 285 285 285 285 285 285 285 285 285 285 285 285 285 286 286 286 285 285 284 284 284 284 284 284 283 283 283 283 284 284 284 284 284 284 284 284 285 285 285 285 286 286 286 286 286 286 286 286 286 286 286 286 286 286 286 285 285 286 286 286 286 287 287 287 287 287 286 286 286
281 281 281 281 281 281 282 282 282 283 284 284 284 285 285 285 285 285 285 285 285 285 285 285 285 285 285 285 285 285 285 286 286 286 285 284 284 283 283 283 283 283 283 283 283 284 284 284 284 283 283 283 284 285 285 285 285 285 285 285 285 286 286 286 286 286 286 286 286 286 286 285 285 285 285 285 286 286 286 286 286 286 286 286 286 286
281 281 281 281 281 282 282 282 283 284 284 285 285 285 285 285 285 285 284 284 284 284 285 284 284 284 285 285 285 285 285 285 285 286 285 285 284 284 284 283 283 283 283 283 283 283 284 284 284 284 283 283 284 285 285 286 285 285 285 285 285 285 286 286 286 286 286 286 286 286 285 285 284 284 284 285 285 285 286 286 286 285 285 285 285 285
281 281 281 281 282 282 283 283 284 284 285 285 285 285 285 284 284 284 284 284 284 284 284 284 284 284 284 284 284 284 284 285 285 285 285 285 285 285 284 284 284 284 284 284 284 284 284 284 284 284 284 284 284 285 285 285 285 285 285 285 285 285 286 286 286 286 285 285 285 285 285 284 284 283 283 283 284 284 285 285 285 285 285 285 285 285
281 281 282 282 282 283 283 284 284 284 285 285 285 285 284 284 284 284 284 284 284 284 284 283 283 283 284 284 284 284 284 284 285 285 285 285 285 285 285 285 284 284 284 284 284 284 283 284 284 284 284 284 284 285 285 285 285 285 285 285 285 285 285 285 285 285 285 285 285 285 284 284 284 283 283 282 283 284 284 285 285 285 285 285 285 285
281 282 282 282 283 283 284 284 284 284 284 284 284 284 284 284 284 284 284 284 284 284 284 283 283 283 283 283 283 283 284 284 284 285 285 285 285 285 285 285 285 284 283 283 283 282 282 282 283 284 285 285 285 285 285 285 285 285 285 285 285 285 285 285 285 285 285 285 284 284 284 283 283 283 282 282 282 283 284 284 285 285 285 285 285 285
Wind_Speed
20 19 18 17 16 14 14 13 11 10 10 11 12 15 19 21 21 22 22 23 24 24 25 25 24 23 21 19 18 18 18 19 19 19 19 19 19 19 19 19 18 18 17 16 16 16 16 16 17 17 17 17 18 18 19 19 19 19 19 19 19 19 19 19 19 18 18 18 18 19 19 19 20 20 21 21 21 21 21 21 21 21 21 20 19 19
19 18 17 17 16 14 13 12 11 9 9 10 11 13 15 16 17 16 17 17 18 19 20 21 21 20 19 18 18 18 18 18 18 18 18 18 19 19 18 18 17 16 16 16 16 17 17 17 17 17 18 18 18 18 18 18 19 19 19 19 19 19 19 18 18 18 18 19 19 19 19 20 20 20 20 21 21 21 21 20 20 19 19 18 17 17
19 18 17 16 14 13 11 10 9 8 8 9 9 10 11 12 12 12 12 13 14 16 17 18 18 18 18 17 17 17 17 17 18 18 18 18 18 18 17 16 16 16 17 17 18 18 18 18 18 18 18 18 18 18 18 18 18 18 18 18 18 18 18 18 17 17 18 18 18 18 18 18 18 18 19 19 19 19 18 18 17 17 17 16 16 16
16 15 14 13 12 10 8 7 7 7 7 8 8 9 9 10 10 10 10 11 12 13 15 15 16 16 16 16 17 17 17 17 18 18 18 18 18 17 16 16 16 17 18 19 19 19 18 18 18 18 18 18 18 18 18 18 18 18 17 17 17 17 17 17 17 17 17 17 17 17 17 17 16 16 16 16 16 16 16 15 15 16 16 16 16 16
12 11 11 10 8 7 7 6 6 6 7 7 8 8 9 9 9 10 10 10 11 12 13 14 14 15 15 16 16 16 17 17 17 17 17 17 16 16 16 16 17 18 18 19 19 19 19 19 19 19 18 18 17 17 17 17 17 16 17 17 17 18 18 18 18 18 17 16 16 15 15 15 15 15 15 15 15 15 15 15 15 15 16 16 16 16
9 8 8 7 7 6 6 6 6 6 7 7 7 8 8 8 9 9 9 10 11 11 12 13 13 14 14 15 15 16 16 16 17 16 16 16 15 15 15 16 17 17 18 18 19 19 19 19 19 18 17 17 16 16 15 15 16 16 17 18 19 19 19 19 18 17 16 15 15 14 14 14 14 14 14 14 14 15 15 15 15 15 16 16 16 16
7 7 6 6 6 6 6 6 6 6 7 7 7 8 8 8 8 8 9 9 10 11 11 12 13 13 14 14 15 15 16 16 15 15 14 14 14 14 14 15 16 17 18 18 19 19 19 18 17 16 16 15 15 15 15 16 17 18 18 19 20 20 19 18 17 16 15 15 14 14 14 14 14 14 14 14 14 14 15 15 15 15 16 15 15 15
5 5 6 6 6 6 6 6 6 6 7 7 7 7 8 8 8 8 9 9 10 10 11 12 13 13 14 14 14 15 14 14 13 12 12 12 12 13 14 15 16 18 18 19 19 19 19 18 17 17 16 16 16 17 17 18 19 20 20 20 20 19 18 17 16 15 15 14 14 14 14 14 14 14 14 14 14 15 15 15 16 16 16 16 16 16
5 5 6 6 6 6 6 6 7 7 7 7 7 7 7 8 8 9 9 9 10 10 11 11 12 12 13 13 13 13 12 12 11 10 11 11 12 13 15 16 18 19 19 19 20 20 20 20 20 19 19 19 20 20 20 20 21 21 21 20 19 18 17 16 15 15 14 14 14 14 14 14 14 14 15 15 15 15 16 16 16 17 17 16 16 16
6 6 6 7 7 7 6 7 7 7 7 7 8 8 8 8 9 9 9 9 10 10 11 11 11 11 11 12 11 11 11 10 10 11 11 13 14 15 17 18 19 20 20 20 21 21 21 21 21 21 22 22 22 22 21 21 21 20 20 19 18 17 16 15 15 14 14 14 14 14 14 14 15 15 15 16 16 16 16 17 17 17 17 17 17 17
7 8 8 8 8 8 8 8 8 9 9 9 9 9 9 9 9 9 8 8 8 9 9 10 10 10 10 10 10 10 10 10 11 12 13 15 16 17 18 19 20 20 21 21 21 21 21 21 21 21 21 22 21 21 21 21 20 19 19 18 17 16 15 15 14 14 14 14 14 14 14 15 15 15 16 16 16 16 17 17 18 18 18 18 17 17
8 9 9 9 10 10 10 10 10 10 10 9 9 8 8 8 8 8 8 8 8 8 9 9 9 9 10 10 10 11 11 12 13 14 15 16 17 18 19 19 20 20 21 21 21 20 20 19 19 20 20 20 20 20 20 19 19 18 18 17 16 15 15 15 14 14 14 14 14 15 15 15 16 16 16 16 16 17 17 18 18 19 19 18 18 17
9 9 10 10 11 11 10 10 10 10 9 8 7 6 6 7 8 8 8 8 9 9 9 9 10 10 10 11 12 13 13 14 15 16 17 18 18 18 18 19 19 20 20 20 20 19 18 18 18 19 19 19 19 19 18 18 18 17 17 16 16 15 15 15 14 14 15 15 15 15 16 16 16 16 16 16 16 17 18 19 19 19 19 19 18 18
9 9 9 9 9 9 9 9 8 7 7 7 7 7 7 8 8 8 9 9 10 10 10 11 11 12 12 13 14 15 16 17 18 18 18 19 18 18 18 18 19 19 19 18 17 17 17 17 18 19 19 19 18 18 18 17 17 16 16 16 15 15 15 15 15 15 15 15 16 16 16 16 17 17 17 17 17 18 19 19 20 20 20 20 19 19
7 7 6 6 6 7 7 7 7 7 7 7 7 8 8 9 9 10 10 11 11 12 12 13 13 14 14 15 16 16 17 18 19 19 20 19 19 18 18 18 18 18 17 16 16 16 17 18 18 19 19 19 18 18 17 17 16 16 16 15 15 15 15 15 15 15 15 16 16 16 17 17 17 18 18 19 19 20 20 21 21 21 21 21 20 20
6 5 4 4 4 5 6 6 6 7 7 8 8 9 9 10 11 12 12 13 13 14 14 15 15 16 16 16 16 17 18 19 19 20 20 20 20 19 18 18 17 17 16 15 15 16 17 18 19 19 19 19 18 17 17 16 16 16 16 15 15 15 15 15 15 15 16 16 16 17 17 18 18 19 19 20 21 21 21 22 22 22 22 22 21 21
5 4 4 4 5 5 6 6 7 7 8 9 10 11 11 12 13 13 14 15 15 16 16 17 18 18 17 17 17 17 18 19 20 21 22 22 21 19 18 18 17 16 15 14 14 16 17 18 19 19 19 18 18 17 17 16 16 16 16 16 16 15 15 15 15 16 16 16 17 17 18 18 19 20 20 21 21 21 22 22 22 22 22 22 22 22
5 5 5 5 6 6 7 7 8 9 10 10 11 12 13 14 14 15 16 16 17 17 18 19 19 20 20 19 19 19 19 20 21 22 23 23 22 20 18 17 17 16 15 14 14 16 17 18 19 19 19 18 18 17 17 16 16 16 16 16 16 16 15 15 16 16 16 17 17 18 19 19 20 20 21 21 22 22 22 22 22 22 22 23 23 23
7 7 7 7 8 8 8 8 9 10 11 12 13 13 14 15 16 17 17 18 19 19 19 20 21 21 22 22 22 21 21 21 22 23 24 24 23 20 17 16 15 15 14 14 14 15 17 18 18 18 18 18 17 17 17 17 17 17 17 17 16 16 16 16 16 17 17 18 18 19 20 20 21 21 22 22 22 22 22 22 22 22 23 23 23 23
10 11 10 10 10 10 10 11 12 12 13 13 14 15 16 17 18 18 19 20 20 21 21 21 22 22 23 23 23 23 23 22 23 24 24 24 22 18 15 14 14 14 14 13 14 15 16 17 18 18 18 18 17 17 17 17 17 17 17 17 17 17 17 17 17 18 18 19 20 21 21 22 22 22 22 22 22 22 22 22 22 22 23 23 23 23
12 12 12 12 13 13 13 13 14 14 15 15 16 17 18 19 19 20 20 21 21 22 22 22 22 23 23 24 24 23 23 22 23 24 24 23 20 16 13 12 13 13 13 13 14 15 16 17 18 18 18 18 17 17 17 18 18 18 18 18 17 17 17 18 18 19 20 20 21 22 22 23 23 23 22 22 22 22 22 22 22 22 22 22 22 22
13 13 14 14 14 14 14 15 16 16 16 17 18 18 19 19 20 20 21 21 21 22 22 22 23 23 23 23 23 23 22 22 22 22 22 22 19 15 12 12 12 13 13 13 14 15 16 17 17 17 17 17 17 18 18 18 18 18 18 18 18 18 19 19 20 20 21 21 22 22 23 23 23 22 22 22 22 22 21 21 21 21 21 22 22 22
14 15 15 14 14 14 14 15 15 16 17 17 17 17 18 18 19 19 20 20 21 21 21 22 22 22 22 22 22 22 21 20 19 19 19 20 18 15 13 12 13 13 13 13 14 15 16 16 16 16 16 17 17 18 18 18 18 18 18 18 18 19 19 20 20 21 21 21 22 22 22 22 22 22 22 22 21 21 21 21 21 21 22 22 22 22
15 15 15 14 14 14 14 14 14 15 16 16 16 16 17 17 18 18 19 20 20 21 21 22 22 22 21 21 20 19 18 17 16 16 17 17 17 15 14 14 14 14 14 14 14 15 15 15 14 15 15 16 17 18 18 18 18 18 18 19 19 19 20 20 20 20 20 21 21 21 22 22 22 22 22 22 22 22 22 22 22 22 22 22 23 23
15 15 14 14 14 13 12 12 13 13 14 14 15 16 17 17 18 19 20 20 20 21 21 21 22 22 21 21 19 17 14 13 13 13 15 16 16 15 14 14 15 15 15 14 15 15 14 14 13 14 15 16 17 17 17 18 18 18 18 19 19 19 19 19 19 19 19 20 20 21 21 21 21 22 22 22 22 22 22 22 23 23 23 24 24 24
17 17 16 15 15 14 13 12 12 13 13 14 15 16 17 18 19 20 20 20 20 21 21 21 22 22 22 20 18 16 13 11 10 11 13 15 16 16 14 15 15 15 15 15 14 14 13 13 13 13 14 15 16 17 17 17 18 18 18 18 18 18 18 18 18 18 19 19 19 20 20 21 21 21 22 22 22 22 23 23 23 24 24 25 25 26
19 18 18 17 16 15 15 15 15 15 15 16 16 17 19 20 21 21 21 21 21 21 21 22 22 22 21 19 17 15 12 11 10 11 12 14 16 16 15 15 15 15 15 15 14 14 13 13 13 14 15 15 16 16 16 17 17 17 16 16 16 16 16 17 17 18 18 18 19 19 20 20 21 21 21 22 22 23 23 24 24 25 26 26 27 27
19 19 19 18 18 17 17 17 17 17 17 17 17 18 19 21 22 22 22 22 21 21 21 22 22 21 20 19 17 15 13 11 11 11 12 14 15 16 16 16 16 16 16 16 15 14 14 13 13 14 15 15 15 15 15 15 15 14 14 14 15 15 16 16 17 17 17 18 18 19 19 20 20 21 21 22 23 23 24 25 25 26 27 28 28 29
18 18 18 18 18 18 18 19 19 19 19 18 18 18 19 20 21 22 21 21 20 20 21 21 21 20 19 18 17 15 13 12 11 11 12 13 15 16 16 16 16 16 17 17 16 15 14 13 13 13 14 14 13 13 13 13 13 13 13 14 15 15 16 16 16 17 17 17 18 18 19 20 20 21 21 22 23 24 24 25 26 27 28 29 30 30
17 17 17 17 18 18 19 19 20 20 20 19 19 19 19 19 20 20 19 19 19 19 19 19 19 18 18 17 17 16 14 11 10 11 12 14 16 17 17 17 16 16 16 17 16 16 14 12 11 11 11 11 11 11 11 11 12 13 13 14 15 15 15 16 16 16 17 17 18 18 19 19 20 20 21 22 23 24 24 25 26 27 29 30 30 30
15 15 15 16 16 17 18 19 20 20 20 20 20 19 19 19 19 18 18 18 17 17 17 17 17 17 16 17 18 18 16 12 11 12 14 15 17 18 18 17 17 16 16 16 17 17 16 13 11 10 10 10 10 11 11 12 13 14 14 14 14 14 15 15 16 16 16 17 17 17 18 18 19 20 20 21 22 23 24 24 26 27 29 29 30 30
13 13 14 15 16 17 18 19 19 20 20 20 20 20 19 19 18 18 17 17 16 16 16 16 16 16 16 16 17 18 17 15 14 14 15 16 18 18 18 18 17 16 15 15 16 16 16 17 14 12 11 11 11 12 12 13 13 14 14 14 14 14 14 15 15 16 16 16 16 17 17 17 18 19 19 20 21 22 23 24 25 26 28 28 29 29
12 13 13 15 16 17 17 18 19 19 20 20 20 19 19 19 18 18 17 16 16 15 15 15 16 16 17 17 18 18 18 17 16 15 16 17 18 18 18 18 18 17 16 16 16 16 17 19 19 16 14 13 13 12 12 12 12 13 13 13 13 14 14 15 15 16 16 16 16 16 17 17 17 18 18 19 20 21 22 23 24 25 27 27 28 28
12 13 13 14 15 16 17 17 18 18 19 19 19 19 18 18 17 17 17 16 16 15 15 16 16 17 17 18 19 19 19 17 16 15 16 17 18 19 19 19 19 19 18 18 18 18 18 19 19 18 18 16 14 13 13 13 13 13 13 14 14 15 15 15 16 17 17 17 17 17 17 17 17 18 18 19 20 21 21 22 23 24 25 26 26 27
14 14 14 14 15 16 16 16 17 17 18 18 18 18 17 17 17 16 16 16 16 16 16 16 16 17 18 19 20 20 20 17 16 16 17 18 18 19 19 20 19 19 20 20 20 20 21 19 19 19 20 19 17 15 15 15 15 15 15 15 16 16 16 16 17 17 18 18 18 18 18 18 18 18 19 19 20 20 21 22 22 23 24 25 25 26
16 15 15 15 15 16 16 15 16 16 17 17 17 17 17 16 16 16 16 16 16 16 16 16 16 17 18 19 20 20 19 18 17 17 17 18 19 19 20 20 20 20 21 21 21 22 23 22 21 20 20 21 20 18 16 16 16 16 17 17 17 17 17 17 18 18 19 19 19 19 19 19 19 19 19 19 20 20 21 22 22 23 23 24 25 26
17 16 16 15 15 16 15 15 15 15 16 16 17 17 16 16 16 16 16 16 16 16 16 16 17 17 18 19 19 19 19 18 18 17 17 18 19 20 21 21 20 20 22 23 23 23 23 24 23 22 21 21 21 21 19 17 17 18 18 18 19 19 19 19 19 20 20 20 20 20 20 20 20 20 20 20 20 21 21 22 23 23 24 24 25 26
17 17 16 16 16 16 15 15 14 15 15 16 17 17 16 16 15 15 15 15 15 15 15 16 16 17 18 18 19 19 19 19 19 18 18 19 19 21 22 22 21 21 22 23 23 23 24 25 25 25 24 22 21 20 20 19 19 19 20 20 20 20 21 21 21 21 22 22 22 22 21 21 20 20 20 20 20 20 21 22 22 23 23 24 25 25
18 17 17 16 16 15 15 15 14 14 15 16 16 16 15 15 14 14 14 14 14 14 15 16 16 17 18 18 19 19 20 20 20 20 20 20 21 21 22 23 23 23 22 23 23 24 24 25 25 26 26 25 23 21 20 19 20 20 21 21 22 22 22 22 23 23 23 23 23 22 21 20 19 19 18 18 19 20 20 21 22 22 23 23 24 25
18 17 17 16 16 15 15 14 14 14 15 15 15 15 14 13 13 13 13 13 14 15 15 16 17 18 18 19 19 20 21 21 21 22 22 22 22 22 23 24 24 24 24 24 24 24 24 25 25 25 25 25 24 22 20 20 20 21 22 23 24 24 24 24 24 24 24 23 22 22 20 19 18 17 17 18 18 19 20 21 22 22 22 23 23 24
18 17 17 16 15 15 15 15 14 14 14 14 14 14 13 13 13 13 13 13 14 15 16 17 18 18 19 20 20 21 22 22 22 22 23 23 23 23 23 24 24 24 24 24 24 24 24 25 25 25 24 23 23 22 21 20 20 21 22 24 25 26 25 25 25 24 23 23 22 20 19 18 17 17 17 18 18 19 20 21 21 22 22 23 23 24
17 17 16 15 15 15 14 14 14 14 13 13 13 13 12 12 13 13 13 14 15 15 16 17 18 19 20 20 21 21 21 22 22 22 22 22 23 23 23 23 24 24 23 24 24 24 24 23 23 23 22 21 21 22 22 22 21 22 23 25 26 26 26 25 24 23 22 21 20 19 18 17 17 17 18 18 19 19 20 21 21 22 22 22 23 23
16 16 15 15 14 14 14 13 13 13 13 13 12 12 12 12 13 14 14 14 15 15 16 17 18 19 21 21 21 21 21 21 20 20 20 21 21 21 22 22 22 22 22 22 22 22 22 21 21 21 20 19 20 21 23 23 23 24 24 25 25 26 27 25 23 22 21 19 18 17 17 17 18 18 19 20 20 21 21 21 21 22 22 22 22 23
16 15 14 14 13 13 13 13 13 13 12 12 12 12 12 13 13 14 14 15 15 15 16 17 19 20 21 22 22 21 20 19 18 18 18 18 18 19 19 20 20 20 20 19 19 19 19 19 19 19 18 19 20 22 24 24 25 25 25 24 24 24 24 24 22 21 20 19 18 17 17 17 18 20 21 21 22 22 22 22 22 22 21 21 21 21
15 15 14 14 13 13 13 12 12 12 12 12 12 12 12 13 13 14 14 14 15 16 17 18 20 21 21 21 21 20 19 18 16 15 15 15 15 16 16 17 17 17 17 17 17 17 17 18 18 18 18 19 21 23 24 25 25 25 24 23 22 22 22 21 20 20 19 19 18 18 17 18 19 21 22 22 23 23 22 22 22 22 22 21 21 21
16 15 15 14 13 13 13 12 12 12 12 12 12 12 12 12 13 13 14 15 15 17 18 19 20 20 20 19 19 18 17 16 15 13 12 12 13 14 14 14 14 14 14 15 15 15 16 17 17 18 19 20 22 23 24 24 24 24 23 21 20 20 20 20 19 19 20 19 19 19 19 19 20 22 23 24 24 24 24 24 24 24 23 23 23 23
15 15 15 14 14 13 13 12 12 12 12 12 12 12 12 12 12 13 14 15 16 17 18 19 19 18 17 17 16 16 15 15 14 12 10 9 10 11 12 12 12 12 13 13 14 15 16 17 17 18 19 20 22 23 23 23 22 21 21 20 19 20 20 20 20 20 20 20 20 20 20 21 23 24 25 26 26 26 26 25 25 25 24 24 24 24
15 14 14 14 13 13 12 12 12 12 12 11 11 11 11 11 12 13 14 16 17 17 18 18 17 16 16 15 14 14 13 13 12 11 10 8 8 8 9 10 10 11 12 13 14 15 16 17 17 17 18 19 21 22 22 20 19 19 19 19 19 20 21 21 21 21 21 21 21 22 23 24 25 26 27 28 29 29 28 27 26 25 25 25 25 25
14 14 13 13 13 12 12 12 11 11 11 11 11 11 11 12 13 13 14 15 16 16 16 16 15 15 14 13 13 12 12 12 11 10 9 8 7 7 7 8 9 10 12 13 14 15 16 17 17 17 17 18 19 19 20 19 18 18 19 19 20 21 22 23 22 22 22 23 23 24 25 25 26 27 27 29 30 31 30 29 28 27 26 26 25 24
14 13 13 12 12 11 11 11 11 11 10 10 11 11 12 12 13 13 14 14 14 15 15 14 14 14 13 13 13 12 12 12 11 10 9 9 8 8 9 9 10 11 13 14 15 16 17 18 19 19 18 17 17 17 18 18 18 19 20 21 22 22 23 23 23 23 23 24 25 26 26 27 27 27 27 28 30 31 32 31 30 28 27 26 25 24
13 13 12 12 12 11 11 11 11 10 11 11 11 12 12 13 13 13 13 13 13 13 13 13 13 13 12 13 13 13 13 12 12 11 10 10 10 11 11 12 13 13 14 16 17 17 19 20 21 21 20 18 16 16 16 17 19 20 22 22 23 23 23 24 25 25 25 26 27 28 28 28 28 28 28 28 30 31 32 32 31 29 28 26 25 24
Wind_Direction
287 290 293 295 299 302 303 302 302 301 296 290 282 275 272 274 277 277 276 275 275 275 275 275 274 273 272 269 267 267 268 269 271 271 271 270 269 268 268 269 271 274 275 275 275 274 274 274 274 275 275 276 276 277 277 278 278 278 278 277 276 275 274 272 270 268 266 264 262 261 260 259 258 258 257 257 257 258 259 259 260 261 262 262 263 263
287 290 293 295 298 301 302 300 299 297 292 285 280 276 274 275 276 276 275 274 275 275 275 275 274 273 271 270 269 269 269 270 269 269 268 267 266 266 267 268 270 271 271 271 270 270 271 271 272 272 273 273 274 274 274 275 276 276 276 276 277 277 277 276 274 272 270 268 266 265 263 263 262 262 261 261 261 262 263 263 263 264 264 265 265 265
288 291 293 295 296 298 299 298 295 290 285 280 276 273 271 271 272 271 271 271 272 272 272 272 272 272 271 271 271 271 271 270 269 267 266 265 264 265 266 267 267 267 267 267 268 269 270 271 272 272 272 272 272 272 272 272 273 274 274 275 276 277 278 278 278 277 276 274 272 271 269 268 267 266 265 264 264 264 264 264 264 264 263 263 263 263
290 293 294 295 296 296 297 297 292 284 278 275 272 270 267 267 268 268 268 268 268 269 269 269 270 271 272 272 272 272 271 270 268 266 265 264 264 264 264 264 264 265 266 267 269 270 271 271 272 272 272 271 271 270 270 271 271 272 273 274 274 274 274 274 274 274 274 274 273 272 271 270 269 268 267 266 265 265 264 263 262 262 260 260 260 262
293 295 295 296 297 299 300 297 291 283 279 276 275 273 272 270 270 270 268 267 267 268 268 269 270 271 272 273 272 271 269 268 267 266 265 264 263 262 261 261 262 264 266 269 270 271 272 272 272 271 271 271 271 270 270 270 270 270 269 269 268 268 268 269 270 271 271 270 269 268 267 267 266 265 265 264 263 262 260 259 258 258 259 259 260 262
295 297 297 299 303 306 307 302 295 290 287 285 283 280 278 277 276 274 273 270 270 270 270 271 271 272 272 271 270 269 268 267 267 266 265 264 262 260 260 261 263 266 268 271 272 273 274 273 272 271 270 269 269 269 268 267 266 264 263 263 264 265 267 268 270 271 271 270 268 267 266 265 264 263 262 261 261 260 259 258 258 258 259 261 263 264
297 299 300 303 306 308 309 305 301 296 295 292 289 287 284 282 280 277 275 273 272 271 270 270 271 271 270 269 269 268 268 268 268 267 266 264 262 262 262 264 267 269 270 272 273 274 274 272 270 268 266 265 264 262 261 259 259 258 259 261 263 266 268 270 272 272 272 272 271 270 268 267 267 266 265 265 264 264 263 262 262 262 263 264 265 266
303 306 306 309 310 310 309 305 301 297 294 292 289 288 286 283 279 276 274 272 271 270 269 269 270 270 270 270 270 270 270 269 268 266 265 264 264 265 267 268 270 271 272 273 274 274 272 268 265 261 259 256 254 253 253 254 255 257 260 263 266 268 271 272 273 274 273 273 272 272 271 270 270 270 269 269 269 268 268 268 268 267 267 267 267 267
312 314 312 311 311 309 305 301 297 293 289 285 282 281 280 278 276 273 272 271 270 270 269 270 270 270 270 270 270 270 269 267 265 265 266 268 270 271 272 272 273 273 274 274 274 273 270 266 262 258 256 253 252 252 253 254 257 260 263 266 270 272 274 274 274 274 273 272 272 271 271 271 271 271 271 271 271 272 272 272 272 272 271 271 270 269
318 318 316 312 308 304 297 291 288 288 286 281 279 277 276 275 274 274 274 273 273 272 270 269 266 265 265 266 267 266 266 266 267 270 273 275 277 277 276 276 276 276 276 275 274 272 270 267 264 261 259 257 256 256 258 260 262 265 268 271 273 274 275 274 273 272 271 270 269 269 270 270 270 271 272 273 274 275 276 276 276 276 275 275 274 273
317 315 313 307 303 300 295 288 285 285 285 283 281 279 278 275 273 273 272 270 270 270 269 266 262 260 260 265 265 265 267 270 274 276 278 279 280 280 280 280 280 279 278 277 275 274 271 269 266 263 262 261 260 261 263 265 268 270 273 274 275 274 273 271 270 269 268 267 267 268 269 269 270 272 273 275 277 278 279 279 280 279 279 279 279 279
307 305 303 298 295 292 290 287 285 284 283 281 279 278 277 274 271 269 266 264 264 265 267 267 267 266 267 271 275 275 276 278 279 280 280 280 281 282 283 283 283 282 280 279 277 274 271 268 264 262 261 261 262 263 266 268 270 272 273 273 272 271 269 267 266 266 266 266 267 268 269 270 271 273 275 276 278 279 280 280 280 281 281 282 282 283
295 292 290 288 286 285 283 283 282 282 281 277 272 267 268 272 272 270 270 269 270 271 273 275 278 279 278 280 282 284 285 284 283 283 282 283 284 285 286 286 285 284 282 279 277 273 269 265 262 261 261 262 263 265 267 269 270 271 270 269 267 266 265 264 264 265 265 266 267 269 270 271 272 274 275 276 277 278 278 278 279 280 280 281 282 283
291 288 286 281 278 276 275 275 275 276 277 274 272 269 270 273 275 277 279 282 283 283 284 287 289 290 289 288 288 288 288 287 286 286 286 286 287 289 289 289 286 284 280 277 274 269 266 263 262 262 262 264 266 267 268 269 268 267 265 263 261 261 261 261 262 264 265 267 268 269 271 272 273 274 275 274 275 275 275 276 277 278 278 279 279 279
293 290 283 274 268 266 266 266 267 269 272 276 277 276 277 279 283 286 289 292 292 293 293 293 292 291 292 290 290 290 289 289 289 289 289 288 289 291 292 290 287 282 277 273 268 265 263 262 262 263 265 266 267 268 268 266 263 260 258 256 256 256 258 260 262 264 266 267 269 270 272 273 274 274 274 274 275 275 276 277 277 278 279 279 279 278
295 287 267 256 253 255 259 261 262 268 275 280 283 285 289 291 292 293 294 294 294 295 295 293 291 290 290 290 290 291 291 291 290 290 290 290 291 293 294 291 285 279 273 267 263 262 261 261 263 264 266 267 267 266 264 261 257 254 252 252 252 254 257 259 262 264 267 269 270 272 273 274 275 276 277 277 278 278 279 279 280 280 281 281 281 281
288 277 261 252 255 260 263 267 270 275 280 284 287 289 290 292 293 294 293 293 293 293 292 291 292 291 291 290 290 290 290 291 291 291 291 290 291 293 293 289 283 276 269 263 260 259 260 262 263 264 265 265 264 262 259 255 252 249 248 249 250 253 256 260 263 266 268 270 272 274 276 277 278 278 279 279 279 280 280 280 280 280 281 281 281 282
275 269 265 263 266 270 272 277 279 281 283 285 287 288 290 290 290 291 290 290 290 290 291 291 291 292 292 291 290 288 289 290 291 291 290 289 289 291 290 285 278 272 265 261 258 258 259 261 262 263 263 263 261 258 255 252 249 247 247 248 250 253 257 261 264 267 270 273 275 276 277 278 278 278 279 278 278 278 278 278 279 279 280 280 281 281
265 261 259 263 265 268 272 279 281 283 283 284 285 286 286 286 286 286 286 287 288 288 289 290 290 289 290 290 288 288 289 290 290 290 289 288 288 289 289 283 274 267 262 258 257 256 257 259 260 261 261 260 258 255 252 250 248 247 247 248 251 254 258 262 266 269 272 274 276 276 276 276 276 276 275 275 276 276 276 277 277 278 279 280 281 281
275 272 269 272 275 276 276 278 279 278 278 279 280 281 281 281 283 283 284 285 286 286 286 286 286 286 286 286 287 288 289 291 291 290 289 288 289 290 289 281 271 264 259 255 254 254 255 256 257 258 258 257 255 253 250 249 248 247 248 250 253 256 260 265 268 271 273 274 274 274 273 273 273 273 273 273 273 274 275 275 276 277 278 280 281 282
293 292 291 290 289 287 284 284 283 281 280 280 280 280 280 280 281 282 283 284 284 284 284 283 283 283 284 285 286 287 289 290 290 290 289 288 288 289 288 279 269 262 256 253 252 252 253 253 254 255 255 254 253 251 250 249 248 249 250 252 255 259 263 267 270 272 272 272 272 271 271 271 271 271 271 272 272 273 273 274 275 276 278 279 281 283
303 301 300 299 297 294 292 292 291 289 287 286 284 284 283 283 283 282 282 282 282 281 282 282 282 283 284 285 286 288 289 289 289 289 288 288 287 287 285 277 270 263 259 255 253 252 252 252 252 252 252 251 250 250 249 249 250 251 253 255 258 261 265 268 270 271 271 270 270 270 270 270 271 271 272 272 272 272 273 273 274 275 277 278 280 282
303 303 302 302 300 298 295 294 293 291 289 288 287 287 286 285 285 284 283 282 282 283 284 285 285 286 287 287 289 290 290 289 288 287 286 285 285 285 283 278 273 269 265 261 257 255 252 250 249 249 249 249 249 249 249 250 251 253 255 257 260 263 266 268 268 268 268 268 268 269 270 271 272 272 272 272 273 273 273 273 274 274 276 277 279 281
301 300 301 300 300 298 295 293 291 290 289 289 289 288 287 286 286 286 286 286 287 289 290 291 291 291 291 292 292 292 291 289 286 284 283 282 282 283 284 282 279 275 270 266 262 258 253 249 246 245 246 247 248 249 251 252 253 255 257 260 262 264 265 265 265 265 266 267 268 270 271 272 273 273 273 273 273 273 273 273 274 275 276 277 278 280
300 300 300 301 301 299 296 293 290 289 290 290 290 289 289 289 290 290 291 292 294 296 297 297 296 296 298 299 298 296 292 288 284 282 282 283 283 284 286 286 284 280 274 269 265 261 256 249 244 243 245 247 249 251 252 254 256 258 260 262 263 263 263 262 262 263 265 267 269 271 272 273 274 274 273 273 273 273 273 274 275 276 277 278 279 280
300 300 301 301 301 299 295 288 283 282 284 285 286 288 290 292 292 293 294 294 296 298 298 298 297 298 301 302 302 300 296 290 285 283 284 286 286 286 288 287 285 281 277 272 268 264 259 250 244 244 246 249 251 253 255 257 258 260 260 260 260 259 259 259 261 263 266 268 271 272 273 273 273 273 273 273 273 273 274 275 276 277 278 278 279 281
295 296 297 298 298 297 294 288 283 280 277 277 280 284 287 289 290 290 290 292 295 297 297 295 296 298 301 301 301 300 297 293 290 288 287 288 288 289 289 288 286 283 279 274 270 267 263 255 250 250 250 251 252 254 256 257 257 258 257 256 255 256 257 259 262 265 268 270 272 273 273 273 273 273 273 273 273 274 275 275 276 277 278 279 280 280
289 291 293 295 296 295 293 290 287 283 280 279 279 280 283 285 287 288 289 292 294 295 294 294 295 298 300 300 300 299 296 297 297 295 290 290 290 291 290 289 287 286 283 278 272 268 266 264 260 257 255 253 254 254 253 253 252 252 251 252 253 256 259 262 266 269 271 273 274 274 274 274 273 273 273 273 273 274 274 275 276 277 278 278 279 280
285 288 289 291 291 291 290 289 288 287 286 285 285 284 284 285 287 288 291 293 292 291 290 291 294 296 298 299 298 296 296 300 301 298 293 292 291 291 290 289 290 290 288 283 276 269 268 268 266 262 258 255 252 250 248 247 247 248 251 255 259 263 267 271 273 275 276 277 277 276 276 275 274 273 273 273 273 273 274 275 275 276 276 277 279 280
283 284 284 285 285 286 286 287 288 289 289 290 290 289 288 287 288 289 290 290 289 287 287 289 291 294 296 296 295 294 297 300 299 297 296 294 293 291 290 291 292 293 293 292 287 279 272 267 263 261 257 253 249 246 245 248 252 257 262 266 270 274 278 279 281 281 281 280 279 278 277 276 275 274 273 272 272 272 273 273 274 274 275 277 278 280
279 279 279 279 280 281 282 284 286 287 289 290 290 290 290 289 289 288 288 287 286 285 285 286 288 290 292 293 293 293 295 296 297 297 296 294 292 291 292 292 293 294 296 299 299 294 285 274 262 256 256 255 254 255 259 264 269 273 276 279 281 283 284 284 283 283 283 282 281 281 280 279 278 276 275 274 273 273 273 273 273 274 275 277 278 279
281 279 279 279 280 281 282 283 284 286 287 288 289 290 290 290 289 288 287 286 284 283 283 284 285 286 286 287 287 288 291 293 296 298 296 293 291 290 291 292 293 295 295 298 299 298 293 287 277 265 262 262 263 265 269 274 278 281 282 284 284 285 285 286 286 287 287 287 287 287 286 284 283 281 279 277 275 274 274 273 273 274 275 276 278 279
288 285 284 283 283 283 283 284 284 285 286 287 288 289 289 290 289 289 287 285 283 281 280 280 280 281 282 283 284 286 289 292 296 298 296 293 291 290 291 292 294 294 295 295 295 293 291 289 286 280 275 272 271 272 274 278 281 284 286 287 288 289 290 292 293 294 294 294 294 293 291 289 286 284 281 279 277 276 275 274 273 273 274 275 277 278
295 292 289 287 285 284 283 283 284 284 285 286 287 287 287 288 288 287 286 284 282 279 277 276 276 277 279 281 282 285 287 291 294 295 293 290 289 289 290 291 292 294 295 295 294 292 290 288 288 288 286 282 280 282 286 290 292 293 294 295 296 297 298 299 300 300 299 298 297 295 292 289 286 283 281 279 277 275 274 273 272 272 272 272 274 275
298 294 291 288 286 283 282 282 283 284 284 285 285 285 285 285 284 283 283 282 281 280 279 278 277 278 279 280 282 284 286 289 290 289 288 286 286 287 287 288 290 292 293 293 293 293 292 290 289 291 291 289 288 290 295 299 301 301 302 302 302 302 303 303 303 302 300 299 297 295 292 289 285 282 280 277 274 272 271 270 269 268 268 268 269 271
299 296 293 290 288 285 284 283 282 283 283 283 283 282 282 281 280 279 279 279 280 280 281 282 282 281 282 282 283 284 286 288 287 285 284 284 284 285 285 286 287 289 291 290 290 291 292 291 289 289 291 292 293 295 299 302 303 303 303 303 303 303 304 304 303 302 301 299 297 295 293 290 287 283 280 276 273 270 269 267 266 265 265 265 266 268
299 298 296 293 291 288 286 285 284 283 283 282 281 280 279 278 277 277 277 277 278 279 280 281 281 281 281 282 283 285 287 288 287 286 285 285 285 284 284 284 285 286 287 288 288 289 289 290 289 289 290 291 294 298 302 304 303 303 303 303 303 303 304 304 304 304 303 302 300 298 295 293 289 286 281 277 273 270 268 266 265 264 264 264 265 266
300 299 297 295 293 290 288 286 285 283 281 280 279 278 278 277 277 275 275 275 276 277 278 278 278 279 280 281 283 285 287 289 289 289 288 288 287 286 286 285 285 284 284 285 285 286 286 287 288 288 289 290 293 297 301 303 303 303 303 303 303 304 305 306 307 306 306 304 302 300 298 295 292 288 283 279 275 271 269 267 265 265 264 265 265 266
300 299 298 297 294 292 290 288 286 283 280 277 277 277 278 277 276 274 273 273 273 274 275 275 276 278 280 283 285 287 289 290 291 291 291 290 288 287 286 285 284 284 283 282 282 282 282 282 283 285 287 290 292 295 298 299 300 301 301 301 302 303 306 308 309 308 307 306 304 302 300 297 294 290 285 280 277 274 271 269 268 267 267 267 267 268
300 300 299 297 295 293 292 290 286 282 278 276 275 276 276 275 273 271 270 270 271 273 275 277 279 281 283 286 288 290 291 292 292 291 291 289 288 286 285 283 283 282 282 281 280 279 279 279 280 282 285 288 291 294 296 297 298 300 301 302 304 306 307 308 309 308 307 306 305 304 302 299 295 291 287 282 279 277 275 274 273 272 272 272 272 272
300 300 298 297 295 293 291 288 284 280 277 275 274 274 273 272 271 270 270 270 272 274 277 280 282 285 287 290 291 292 292 292 291 290 289 287 285 284 282 281 280 280 279 279 278 278 277 278 279 281 283 286 290 292 294 295 298 300 302 303 305 306 307 307 308 308 308 307 306 305 304 301 297 293 288 285 282 280 279 279 279 278 277 277 277 277
299 299 297 296 294 292 289 286 283 280 278 276 274 273 272 271 271 271 272 272 274 276 279 282 285 288 290 291 291 291 290 290 289 288 286 284 283 281 280 278 277 277 276 276 276 276 277 278 279 281 283 287 290 292 293 295 297 299 302 304 305 306 305 306 307 308 308 307 306 306 304 301 298 294 291 288 285 284 283 282 282 282 281 281 280 280
299 298 297 295 293 290 287 285 282 280 278 275 274 272 272 272 272 273 274 276 277 280 283 285 289 291 291 291 291 290 290 289 288 286 284 282 280 278 276 275 275 274 274 274 275 276 277 278 279 281 284 288 290 292 294 296 298 300 302 304 306 307 306 306 307 308 307 306 306 306 305 303 300 297 294 292 290 288 287 286 284 283 283 283 282 282
300 299 298 296 293 290 286 284 282 279 277 274 272 272 273 274 275 276 278 281 284 286 289 291 293 293 294 295 296 296 295 295 293 291 287 283 280 277 275 273 272 272 272 272 273 275 278 279 280 283 286 289 290 291 293 295 298 301 303 305 306 306 305 306 307 308 307 307 307 308 307 306 303 300 297 295 294 292 291 289 287 286 285 284 284 285
302 302 300 298 294 291 288 285 282 280 277 275 274 274 276 277 279 280 283 286 289 292 293 295 297 298 299 301 302 303 303 302 300 296 291 286 281 277 275 273 272 272 272 272 273 275 278 280 283 286 288 289 289 290 292 295 299 302 304 305 305 305 304 306 308 310 310 310 310 311 311 309 307 304 301 299 298 298 297 296 295 293 293 292 292 292
303 302 300 298 295 292 289 286 283 281 280 279 279 280 280 281 283 285 288 291 293 295 297 298 300 303 304 306 307 307 306 305 303 300 293 285 280 277 276 275 274 274 274 275 275 277 278 280 284 287 289 289 289 290 292 295 299 302 304 306 306 306 306 307 310 313 314 314 314 315 315 313 310 308 307 306 305 304 303 303 302 302 301 301 301 302
300 299 298 296 294 291 288 286 284 283 283 283 283 283 283 285 286 289 291 294 296 298 299 301 304 306 308 309 310 310 309 308 306 304 298 287 277 274 274 275 275 275 275 276 277 279 280 282 284 286 287 287 289 291 294 297 299 302 305 307 307 308 308 310 313 316 317 318 319 319 319 317 315 313 312 311 309 308 306 306 305 305 305 305 305 306
296 296 295 293 292 290 288 285 284 283 283 283 284 284 284 286 289 293 295 297 298 300 302 305 307 308 309 311 312 312 312 310 309 308 306 295 282 273 270 270 270 273 274 276 278 280 282 284 285 286 286 287 289 293 297 300 302 304 306 307 308 309 311 313 316 319 320 321 321 322 321 320 318 315 314 312 310 308 307 307 306 305 304 304 305 305
293 292 292 291 290 289 287 284 282 281 280 280 281 282 284 287 291 294 296 297 299 300 303 306 307 308 310 313 315 315 314 313 311 311 310 304 295 286 279 276 276 278 280 282 285 287 289 289 289 289 289 290 292 295 300 303 305 306 306 307 308 310 313 315 317 319 321 321 321 320 319 317 316 314 312 310 308 307 307 306 304 303 302 302 303 304
290 289 289 288 288 286 284 282 279 276 275 275 278 281 285 289 292 294 295 297 298 299 302 305 308 310 311 314 316 316 314 313 311 311 311 309 305 301 300 299 299 299 299 299 300 301 302 301 299 296 295 296 296 298 301 304 306 307 307 307 309 311 313 314 316 318 319 319 318 317 315 314 313 312 309 306 305 305 305 304 303 301 301 301 302 304
287 286 285 284 282 281 279 277 275 273 273 275 278 282 286 289 292 294 295 296 297 299 301 305 309 311 311 312 312 312 310 309 308 308 309 307 306 305 306 307 309 310 312 311 311 311 311 308 305 302 300 299 300 302 302 303 306 307 306 307 309 310 311 312 314 316 316 315 314 313 313 312 311 309 306 303 301 301 301 302 302 301 301 301 303 304